Location: Unspecified
(48.8656°N, 0.0000°E)
Time: 04:48:21
(UTC+00:00)

SR - Pass Details

Date: 26 June 2019
Orbit: 580 x 876 km, 66.7° (Epoch: 22 July)

Event Time Altitude Azimuth Distance (km) Brightness Sun altitude
Rises 04:56:59 0° 268° (W) 2,806 ? 7.3°
Reaches altitude 10° 04:59:54 10° 290° (WNW) 1,928 ? 7.8°
Maximum altitude 05:02:41 17° 330° (NNW) 1,575 ? 8.2°
Drops below altitude 10° 05:05:33 10° 10° (N) 2,000 ? 8.6°
Sets 05:08:41 0° 32° (NNE) 2,963 ? 9.1°
